This demonstration page uses our WeatherBlox Daily Observations layout. Learn more.

Left ArrowRight Arrow

40.92945, -100.16068

Hourly Observations for October 23, 2018

Temp ( °F °C ) Dew Point ( °F °C ) Humidity (%) Winds ( mph kmh ) Pressure ( in mb ) Visibility ( mi km ) Precip ( " mm )
12:15 am 00:15 Clear 39 3.7 31 -0.6 74 74 NNE 3 6 30.33 1027 10 16.0934 0 0
12:35 am 00:35 Clear 39 4.1 30 -1.2 69 69 NNE 5 7 30.33 1027 10 16.0934 0 0
12:55 am 00:55 Clear 39 4 30 -1.2 69 69 Calm 30.33 1027 10 16.0934 0 0
1:15 am 01:15 Clear 38 3.5 30 -1 73 73 Calm 30.33 1027 10 16.0934 0 0
1:35 am 01:35 Clear 37 2.6 30 -1 77 77 Calm 30.36 1028 10 16.0934 0 0
1:55 am 01:55 Clear 35 1.9 30 -1 81 81 Calm 30.36 1028 10 16.0934 0 0
2:15 am 02:15 Clear 36 2.2 31 -0.6 82 82 Calm 30.39 1029 10 16.0934 0 0
2:35 am 02:35 Clear 35 1.5 31 -0.6 86 86 Calm 30.39 1029 10 16.0934 0 0
2:55 am 02:55 Clear 35 1.7 31 -0.4 86 86 Calm 30.39 1029 10 16.0934 0 0
3:15 am 03:15 Clear 36 2 30 -0.9 81 81 Calm 30.39 1029 10 16.0934 0 0
3:35 am 03:35 Clear 34 1.3 30 -1 85 85 Calm 30.39 1029 10 16.0934 0 0
3:55 am 03:55 Clear 34 1 30 -1 87 87 Calm 30.39 1029 10 16.0934 0 0
4:15 am 04:15 Clear 34 1 30 -1 87 87 NW 3 6 30.39 1029 10 16.0934 0 0
4:35 am 04:35 Clear 34 1 30 -1 87 87 Calm 30.39 1029 10 16.0934 0 0
4:55 am 04:55 Clear 34 1 30 -1 87 87 Calm 30.39 1029 10 16.0934 0 0
5:15 am 05:15 Clear 33 0.5 30 -1.3 88 88 W 5 7 30.39 1029 10 16.0934 0 0
5:35 am 05:35 Clear 33 0.5 30 -1.1 89 89 WNW 6 9 30.45 1031 10 16.0934 0 0
5:55 am 05:55 Clear 33 0.5 30 -1.2 89 89 NW 6 9 30.45 1031 10 16.0934 0 0
6:15 am 06:15 Clear 32 0.1 30 -1.3 90 90 NNW 5 7 30.45 1031 10 16.0934 0 0
6:35 am 06:35 Clear 32 0 30 -1.3 91 91 NNW 3 6 30.45 1031 10 16.0934 0 0
6:55 am 06:55 Clear 32 0.2 29 -1.5 89 89 Calm 30.45 1031 7 11.26538 0 0
7:15 am 07:15 Clear 32 0.1 29 -1.6 88 88 Calm 30.45 1031 10 16.0934 0 0
7:35 am 07:35 Clear 32 -0.1 29 -1.8 88 88 Calm 30.45 1031 10 16.0934 0 0
7:55 am 07:55 Clear 32 0 29 -1.7 88 88 Calm 30.45 1031 7 11.26538 0 0
8:15 am 08:15 Sunny 32 0 29 -1.5 90 90 Calm 30.45 1031 10 16.0934 0 0
8:35 am 08:35 Sunny 33 0.3 30 -1.2 90 90 Calm 30.45 1031 7 11.26538 0 0
8:55 am 08:55 Sunny 34 1.2 32 0 92 92 Calm 30.42 1030 7 11.26538 0 0
9:15 am 09:15 Sunny 38 3.5 35 1.4 86 86 Calm 30.45 1031 10 16.0934 0 0
9:35 am 09:35 Sunny 43 6 35 1.4 73 73 Calm 30.42 1030 10 16.0934 0 0
9:55 am 09:55 Sunny 47 8.1 33 0.8 60 60 E 8 13 30.39 1029 10 16.0934 0 0
10:15 am 10:15 Sunny 49 9.3 33 0.6 55 55 ESE 8 13 30.39 1029 10 16.0934 0 0
10:35 am 10:35 Sunny 51 10.3 33 0.7 52 52 ESE 10 17 30.36 1028 10 16.0934 0 0
10:55 am 10:55 Sunny 52 11.2 33 0.3 47 47 ESE 9 15 30.36 1028 10 16.0934 0 0
11:15 am 11:15 Sunny 54 12.1 32 0.2 44 44 ESE 10 17 30.36 1028 10 16.0934 0 0
11:35 am 11:35 Sunny 55 13 33 0.4 42 42 E 10 17 30.36 1028 10 16.0934 0 0
11:55 am 11:55 Sunny 57 14 32 -0.2 38 38 ESE 12 19 30.33 1027 10 16.0934 0 0
12:15 pm 12:15 Sunny 58 14.5 32 0.1 38 38 ESE 10 17 30.33 1027 10 16.0934 0 0
12:35 pm 12:35 Sunny 59 15.1 32 -0.1 36 36 ESE 13 20 30.33 1027 10 16.0934 0 0
12:55 pm 12:55 Sunny 60 15.6 31 -0.3 34 34 SE 12 19 30.3 1026 10 16.0934 0 0
1:15 pm 13:15 Sunny 62 16.4 32 0 33 33 SE 12 19 30.27 1025 10 16.0934 0 0
1:35 pm 13:35 Sunny 62 16.5 32 -0.2 32 32 ESE 10 17 30.24 1024 10 16.0934 0 0
1:55 pm 13:55 Sunny 62 16.9 31 -0.3 31 31 ESE 13 20 30.24 1024 10 16.0934 0 0
2:15 pm 14:15 Sunny 63 17.2 33 0.4 32 32 ESE 14 22 30.24 1024 10 16.0934 0 0
2:35 pm 14:35 Sunny 64 17.5 33 0.4 32 32 SE 14 22 30.24 1024 10 16.0934 0 0
2:55 pm 14:55 Sunny 64 17.7 33 0.8 32 32 ESE 14 22 30.21 1023 10 16.0934 0 0
3:15 pm 15:15 Sunny 65 18.3 35 1.7 33 33 ESE 13 20 30.21 1023 10 16.0934 0 0
3:35 pm 15:35 Sunny 64 18 35 1.5 33 33 ESE 10 17 30.21 1023 10 16.0934 0 0
3:55 pm 15:55 Sunny 65 18.2 36 2.2 34 34 SE 12 19 30.21 1023 10 16.0934 0 0
4:15 pm 16:15 Sunny 65 18.4 36 2.4 35 35 SE 14 22 30.21 1023 10 16.0934 0 0
4:35 pm 16:35 Sunny 65 18.1 38 3.2 37 37 SE 14 22 30.18 1022 10 16.0934 0 0
4:55 pm 16:55 Sunny 64 17.5 38 3.3 39 39 SE 10 17 30.18 1022 10 16.0934 0 0
5:15 pm 17:15 Sunny 64 17.5 37 3 38 38 SE 12 19 30.18 1022 10 16.0934 0 0
5:35 pm 17:35 Sunny 64 17.5 37 2.8 38 38 ESE 15 24 30.18 1022 10 16.0934 0 0
5:55 pm 17:55 Sunny 62 16.7 37 2.8 40 40 SE 10 17 30.18 1022 10 16.0934 0 0
6:15 pm 18:15 Sunny 61 16.1 37 3 42 42 SE 9 15 30.18 1022 10 16.0934 0 0
6:35 pm 18:35 Sunny 60 15.4 37 3 44 44 SE 8 13 30.18 1022 10 16.0934 0 0
6:55 pm 18:55 Clear 58 14.2 37 3 47 47 SE 8 13 30.21 1023 10 16.0934 0 0
7:15 pm 19:15 Clear 56 13.5 37 3 49 49 SE 8 13 30.21 1023 10 16.0934 0 0
7:35 pm 19:35 Clear 55 12.7 38 3.1 52 52 ESE 9 15 30.21 1023 10 16.0934 0 0
7:55 pm 19:55 Clear 55 12.5 37 3 53 53 ESE 9 15 30.21 1023 10 16.0934 0 0
8:15 pm 20:15 Clear 53 11.5 37 3 56 56 SE 7 11 30.24 1024 10 16.0934 0 0
8:35 pm 20:35 Clear 52 11.3 37 3 57 57 ESE 8 13 30.24 1024 10 16.0934 0 0
8:55 pm 20:55 Clear 50 10.1 37 2.8 61 61 ESE 8 13 30.24 1024 10 16.0934 0 0
9:15 pm 21:15 Clear 51 10.4 37 2.9 60 60 ESE 7 11 30.24 1024 10 16.0934 0 0
9:35 pm 21:35 Clear 50 10 37 2.7 61 61 SE 7 11 30.24 1024 10 16.0934 0 0
9:55 pm 21:55 Clear 49 9.6 37 2.7 62 62 ESE 7 11 30.24 1024 10 16.0934 0 0
10:15 pm 22:15 Clear 49 9.6 37 2.5 62 62 ESE 8 13 30.24 1024 10 16.0934 0 0
10:35 pm 22:35 Clear 49 9.2 37 2.5 63 63 ESE 8 13 30.24 1024 10 16.0934 0 0
10:55 pm 22:55 Clear 49 9.2 36 2.2 62 62 SE 9 15 30.24 1024 10 16.0934 0 0
11:15 pm 23:15 Clear 49 9.5 35 1.8 59 59 SE 9 15 30.24 1024 10 16.0934 0 0
11:35 pm 23:35 Clear 49 9.4 35 1.7 59 59 SE 9 15 30.24 1024 10 16.0934 0 0
11:55 pm 23:55 Clear 49 9.3 35 1.7 59 59 SE 8 13 30.24 1024 10 16.0934 0 0

Powered by AerisWeather